Time,TemperatureF,DewpointF,PressureIn,WindDirection,WindDirectionDegrees,WindSpeedMPH,WindSpeedGustMPH,Humidity,HourlyPrecipIn,Conditions,Clouds,dailyrainin,SoftwareType,DateUTC
2013-03-29 00:00:00,53.6,46.0,30.12,West,268,0.0,0.0,74,0.00,,,-99.99,wx200d/1.3,2013-03-29 07:00:00,
2013-03-29 00:15:00,53.2,46.0,30.12,West,267,0.0,0.0,75,0.00,,,-99.99,wx200d/1.3,2013-03-29 07:15:00,
2013-03-29 00:30:00,53.4,46.0,30.12,West,267,0.0,0.0,77,0.00,,,-99.99,wx200d/1.3,2013-03-29 07:30:00,
2013-03-29 00:45:00,53.1,46.0,30.12,West,267,0.0,0.0,79,0.00,,,-99.99,wx200d/1.3,2013-03-29 07:45:00,
2013-03-29 01:00:00,52.5,46.0,30.12,West,267,0.0,0.0,79,0.00,,,-99.99,wx200d/1.3,2013-03-29 08:00:00,
2013-03-29 01:15:00,52.3,46.0,30.12,West,267,0.0,0.0,79,0.00,,,-99.99,wx200d/1.3,2013-03-29 08:15:00,
2013-03-29 01:30:00,52.2,46.0,30.12,West,267,0.0,0.0,79,0.00,,,-99.99,wx200d/1.3,2013-03-29 08:30:00,
2013-03-29 01:45:00,52.0,46.0,30.12,West,267,0.0,0.0,79,0.00,,,-99.99,wx200d/1.3,2013-03-29 08:45:00,
2013-03-29 02:00:00,52.0,46.0,30.12,West,272,0.0,0.0,80,0.00,,,-99.99,wx200d/1.3,2013-03-29 09:00:00,
2013-03-29 02:15:00,51.8,46.0,30.12,West,272,0.0,0.0,81,0.00,,,-99.99,wx200d/1.3,2013-03-29 09:15:00,
2013-03-29 02:30:00,51.8,46.0,30.12,West,272,0.0,0.0,81,0.00,,,-99.99,wx200d/1.3,2013-03-29 09:30:00,
2013-03-29 02:45:00,51.8,46.0,30.12,West,272,0.0,0.0,81,0.00,,,-99.99,wx200d/1.3,2013-03-29 09:45:00,
2013-03-29 03:00:00,51.6,46.0,30.12,West,272,0.0,0.0,82,0.00,,,-99.99,wx200d/1.3,2013-03-29 10:00:00,
2013-03-29 03:15:00,51.6,46.0,30.12,West,272,0.0,0.0,82,0.00,,,-99.99,wx200d/1.3,2013-03-29 10:15:00,
2013-03-29 03:30:00,51.6,46.0,30.12,West,272,0.0,0.0,82,0.00,,,-99.99,wx200d/1.3,2013-03-29 10:30:00,
2013-03-29 03:45:00,52.3,46.0,30.09,West,271,0.0,0.0,84,0.00,,,-99.99,wx200d/1.3,2013-03-29 10:45:00,
2013-03-29 04:00:00,52.0,48.0,30.09,West,271,0.0,0.0,85,0.00,,,-99.99,wx200d/1.3,2013-03-29 11:00:00,
2013-03-29 04:15:00,51.8,48.0,30.09,West,271,0.0,0.0,85,0.00,,,-99.99,wx200d/1.3,2013-03-29 11:15:00,
2013-03-29 04:30:00,51.8,48.0,30.09,West,271,0.0,0.0,85,0.00,,,-99.99,wx200d/1.3,2013-03-29 11:30:00,
2013-03-29 04:45:00,51.4,48.0,30.12,West,271,0.0,0.0,86,0.00,,,-99.99,wx200d/1.3,2013-03-29 11:45:00,
2013-03-29 05:00:00,51.4,48.0,30.12,West,271,0.0,0.0,85,0.00,,,-99.99,wx200d/1.3,2013-03-29 12:00:00,
2013-03-29 05:15:00,50.9,48.0,30.09,West,271,0.0,0.0,85,0.00,,,-99.99,wx200d/1.3,2013-03-29 12:15:00,
2013-03-29 05:30:00,50.7,46.0,30.09,West,271,0.0,0.0,85,0.00,,,-99.99,wx200d/1.3,2013-03-29 12:30:00,
2013-03-29 05:45:00,50.7,46.0,30.09,West,271,0.0,0.0,85,0.00,,,-99.99,wx200d/1.3,2013-03-29 12:45:00,
2013-03-29 06:00:00,50.5,46.0,30.12,West,271,0.0,0.0,85,0.00,,,-99.99,wx200d/1.3,2013-03-29 13:00:00,
2013-03-29 06:15:00,50.4,46.0,30.12,West,271,0.0,0.0,85,0.00,,,-99.99,wx200d/1.3,2013-03-29 13:15:00,
2013-03-29 06:30:00,50.7,46.0,30.12,West,271,0.0,0.0,85,0.00,,,-99.99,wx200d/1.3,2013-03-29 13:30:00,
2013-03-29 06:45:00,51.6,48.0,30.12,West,271,0.0,0.0,86,0.00,,,-99.99,wx200d/1.3,2013-03-29 13:45:00,
2013-03-29 07:00:00,52.3,48.0,30.12,West,271,0.0,0.0,86,0.00,,,-99.99,wx200d/1.3,2013-03-29 14:00:00,
2013-03-29 07:15:00,52.5,48.0,30.12,West,271,0.0,0.0,86,0.00,,,-99.99,wx200d/1.3,2013-03-29 14:15:00,
2013-03-29 07:30:00,53.1,50.0,30.12,West,271,0.0,0.0,87,0.00,,,-99.99,wx200d/1.3,2013-03-29 14:30:00,
2013-03-29 07:45:00,53.8,50.0,30.12,West,271,0.0,0.0,87,0.00,,,-99.99,wx200d/1.3,2013-03-29 14:45:00,
2013-03-29 08:00:00,54.5,52.0,30.12,West,271,0.0,0.0,87,0.00,,,-99.99,wx200d/1.3,2013-03-29 15:00:00,
2013-03-29 08:15:00,54.9,52.0,30.12,West,271,0.0,0.0,87,0.00,,,-99.99,wx200d/1.3,2013-03-29 15:15:00,
2013-03-29 08:30:00,56.3,54.0,30.12,West,271,0.0,0.0,86,0.00,,,-99.99,wx200d/1.3,2013-03-29 15:30:00,
2013-03-29 08:45:00,58.1,55.0,30.12,West,271,0.0,0.0,85,0.00,,,-99.99,wx200d/1.3,2013-03-29 15:45:00,
2013-03-29 09:00:00,58.3,55.0,30.12,West,271,0.0,0.0,86,0.00,,,-99.99,wx200d/1.3,2013-03-29 16:00:00,
2013-03-29 09:15:00,58.1,54.0,30.12,West,271,0.0,0.0,84,0.00,,,-99.99,wx200d/1.3,2013-03-29 16:15:00,
2013-03-29 09:30:00,59.2,54.0,30.12,West,271,0.0,0.0,83,0.00,,,-99.99,wx200d/1.3,2013-03-29 16:30:00,
2013-03-29 09:45:00,59.7,52.0,30.12,NW,323,0.0,0.0,75,0.00,,,-99.99,wx200d/1.3,2013-03-29 16:45:00,
2013-03-29 10:00:00,60.6,48.0,30.12,NNW,337,0.0,0.0,65,0.00,,,-99.99,wx200d/1.3,2013-03-29 17:00:00,
2013-03-29 10:15:00,61.9,46.0,30.12,North,2,0.0,0.0,54,0.00,,,-99.99,wx200d/1.3,2013-03-29 17:15:00,
2013-03-29 10:30:00,62.4,39.0,30.12,East,90,0.0,0.0,43,0.00,,,-99.99,wx200d/1.3,2013-03-29 17:30:00,
2013-03-29 10:45:00,63.7,37.0,30.12,NE,52,0.0,0.0,36,0.00,,,-99.99,wx200d/1.3,2013-03-29 17:45:00,
2013-03-29 11:00:00,64.4,36.0,30.12,East,89,0.0,0.0,34,0.00,,,-99.99,wx200d/1.3,2013-03-29 18:00:00,
2013-03-29 11:15:00,65.8,34.0,30.12,WNW,293,0.0,2.7,31,0.00,,,-99.99,wx200d/1.3,2013-03-29 18:15:00,
2013-03-29 11:30:00,65.8,34.0,30.12,East,89,0.0,0.0,29,0.00,,,-99.99,wx200d/1.3,2013-03-29 18:30:00,
2013-03-29 11:45:00,67.1,32.0,30.12,East,96,0.0,2.7,27,0.00,,,-99.99,wx200d/1.3,2013-03-29 18:45:00,
2013-03-29 12:00:00,68.0,32.0,30.12,West,280,2.2,0.0,24,0.00,,,-99.99,wx200d/1.3,2013-03-29 19:00:00,
2013-03-29 12:15:00,69.1,32.0,30.12,WNW,289,0.0,2.2,24,0.00,,,-99.99,wx200d/1.3,2013-03-29 19:15:00,
2013-03-29 12:30:00,70.0,32.0,30.12,East,86,2.2,3.1,23,0.00,,,-99.99,wx200d/1.3,2013-03-29 19:30:00,
2013-03-29 12:45:00,70.3,32.0,30.12,East,90,3.1,3.6,23,0.00,,,-99.99,wx200d/1.3,2013-03-29 19:45:00,
2013-03-29 13:00:00,72.9,32.0,30.12,ENE,70,0.0,0.0,22,0.00,,,-99.99,wx200d/1.3,2013-03-29 20:00:00,
2013-03-29 13:15:00,74.5,32.0,30.12,West,280,0.0,0.0,21,0.00,,,-99.99,wx200d/1.3,2013-03-29 20:15:00,
2013-03-29 13:30:00,75.9,32.0,30.12,East,100,2.2,3.1,18,0.00,,,-99.99,wx200d/1.3,2013-03-29 20:30:00,
2013-03-29 13:45:00,76.3,32.0,30.12,West,264,0.0,0.0,18,0.00,,,-99.99,wx200d/1.3,2013-03-29 20:45:00,
2013-03-29 14:00:00,76.3,32.0,30.09,West,274,2.2,3.1,18,0.00,,,-99.99,wx200d/1.3,2013-03-29 21:00:00,
2013-03-29 14:15:00,73.9,32.0,30.09,West,280,0.0,0.0,18,0.00,,,-99.99,wx200d/1.3,2013-03-29 21:15:00,
2013-03-29 14:30:00,73.9,32.0,30.09,West,272,0.0,2.7,21,0.00,,,-99.99,wx200d/1.3,2013-03-29 21:30:00,
2013-03-29 14:45:00,73.6,32.0,30.09,WSW,240,0.0,0.0,21,0.00,,,-99.99,wx200d/1.3,2013-03-29 21:45:00,
2013-03-29 15:00:00,72.9,32.0,30.09,West,273,2.2,2.2,21,0.00,,,-99.99,wx200d/1.3,2013-03-29 22:00:00,
2013-03-29 15:15:00,72.7,32.0,30.09,West,273,0.0,0.0,21,0.00,,,-99.99,wx200d/1.3,2013-03-29 22:15:00,
2013-03-29 15:30:00,72.7,32.0,30.09,ENE,71,2.2,0.0,21,0.00,,,-99.99,wx200d/1.3,2013-03-29 22:30:00,
2013-03-29 15:45:00,70.2,32.0,30.09,East,100,0.0,0.0,22,0.00,,,-99.99,wx200d/1.3,2013-03-29 22:45:00,
2013-03-29 16:00:00,68.7,32.0,30.09,East,83,2.2,2.2,23,0.00,,,-99.99,wx200d/1.3,2013-03-29 23:00:00,
2013-03-29 16:15:00,68.9,32.0,30.09,East,98,0.0,3.1,23,0.00,,,-99.99,wx200d/1.3,2013-03-29 23:15:00,
2013-03-29 16:30:00,68.4,32.0,30.09,East,88,0.0,3.1,23,0.00,,,-99.99,wx200d/1.3,2013-03-29 23:30:00,
2013-03-29 16:45:00,68.5,32.0,30.09,East,82,2.2,3.1,23,0.00,,,-99.99,wx200d/1.3,2013-03-29 23:45:00,
2013-03-29 17:00:00,68.4,32.0,30.06,NE,52,0.0,0.0,23,0.00,,,-99.99,wx200d/1.3,2013-03-30 00:00:00,
2013-03-29 17:15:00,67.5,32.0,30.09,East,82,2.2,0.0,23,0.00,,,-99.99,wx200d/1.3,2013-03-30 00:15:00,
2013-03-29 17:30:00,66.4,32.0,30.06,ENE,77,0.0,0.0,23,0.00,,,-99.99,wx200d/1.3,2013-03-30 00:30:00,
2013-03-29 17:45:00,64.9,32.0,30.06,East,82,2.2,0.0,24,0.00,,,-99.99,wx200d/1.3,2013-03-30 00:45:00,
2013-03-29 18:00:00,62.4,32.0,30.06,East,86,2.2,3.1,29,0.00,,,-99.99,wx200d/1.3,2013-03-30 01:00:00,
2013-03-29 18:15:00,61.9,32.0,30.06,East,83,0.0,0.0,31,0.00,,,-99.99,wx200d/1.3,2013-03-30 01:15:00,
2013-03-29 18:30:00,61.9,32.0,30.06,ENE,78,0.0,0.0,29,0.00,,,-99.99,wx200d/1.3,2013-03-30 01:30:00,
2013-03-29 18:45:00,59.7,32.0,30.06,West,261,0.0,0.0,35,0.00,,,-99.99,wx200d/1.3,2013-03-30 01:45:00,
2013-03-29 19:00:00,58.8,32.0,30.06,West,281,2.2,0.0,37,0.00,,,-99.99,wx200d/1.3,2013-03-30 02:00:00,
2013-03-29 19:15:00,58.8,32.0,30.06,West,273,0.0,0.0,37,0.00,,,-99.99,wx200d/1.3,2013-03-30 02:15:00,
2013-03-29 19:30:00,58.6,32.0,30.06,West,272,0.0,0.0,36,0.00,,,-99.99,wx200d/1.3,2013-03-30 02:30:00,
2013-03-29 19:45:00,57.9,32.0,30.06,ENE,76,0.0,0.0,37,0.00,,,-99.99,wx200d/1.3,2013-03-30 02:45:00,
2013-03-29 20:00:00,56.3,37.0,30.06,West,275,3.1,0.0,46,0.00,,,-99.99,wx200d/1.3,2013-03-30 03:00:00,
2013-03-29 20:15:00,55.4,37.0,30.06,West,275,0.0,0.0,50,0.00,,,-99.99,wx200d/1.3,2013-03-30 03:15:00,
2013-03-29 20:30:00,56.1,37.0,30.06,East,93,0.0,0.0,49,0.00,,,-99.99,wx200d/1.3,2013-03-30 03:30:00,
2013-03-29 20:45:00,56.8,37.0,30.06,East,93,0.0,0.0,47,0.00,,,-99.99,wx200d/1.3,2013-03-30 03:45:00,
2013-03-29 21:00:00,57.0,37.0,30.09,ESE,114,0.0,0.0,47,0.00,,,-99.99,wx200d/1.3,2013-03-30 04:00:00,
2013-03-29 21:15:00,57.0,37.0,30.09,ESE,114,0.0,0.0,47,0.00,,,-99.99,wx200d/1.3,2013-03-30 04:15:00,
2013-03-29 21:30:00,56.7,37.0,30.09,East,92,0.0,2.7,46,0.00,,,-99.99,wx200d/1.3,2013-03-30 04:30:00,
2013-03-29 21:45:00,55.4,37.0,30.09,West,277,0.0,0.0,51,0.00,,,-99.99,wx200d/1.3,2013-03-30 04:45:00,
2013-03-29 22:00:00,55.0,39.0,30.09,East,80,0.0,0.0,54,0.00,,,-99.99,wx200d/1.3,2013-03-30 05:00:00,
2013-03-29 22:15:00,55.4,39.0,30.09,West,268,0.0,0.0,56,0.00,,,-99.99,wx200d/1.3,2013-03-30 05:15:00,
2013-03-29 22:30:00,55.0,41.0,30.09,East,92,0.0,4.5,57,0.00,,,-99.99,wx200d/1.3,2013-03-30 05:30:00,
2013-03-29 22:45:00,55.4,39.0,30.09,East,95,0.0,0.0,56,0.00,,,-99.99,wx200d/1.3,2013-03-30 05:45:00,
2013-03-29 23:00:00,55.9,39.0,30.09,East,94,0.0,0.0,54,0.00,,,-99.99,wx200d/1.3,2013-03-30 06:00:00,
2013-03-29 23:15:00,56.5,41.0,30.09,East,89,0.0,0.0,53,0.00,,,-99.99,wx200d/1.3,2013-03-30 06:15:00,
2013-03-29 23:30:00,56.7,39.0,30.09,WNW,296,0.0,0.0,52,0.00,,,-99.99,wx200d/1.3,2013-03-30 06:30:00,
2013-03-29 23:45:00,56.1,39.0,30.09,WNW,282,0.0,0.0,55,0.00,,,-99.99,wx200d/1.3,2013-03-30 06:45:00,